Погода Луговая

Хотите узнать прогноз погоды Луговая? Тогда Вам сюда: Погода Луговая

Поиск расширенной информации на нашем сайте:

Полезная информация:

Новости сайта



02.01.2020
Опубликован Долгосрочный прогноз погоды по городам России и ближнего зарубежья на январь 2020 года.
Карты: Прогноз на январь и февраль 2020 года, Сравнение прогнозируемой аномалии приземной температуры воздуха на январь 2020 года по разным моделям.




Погода Луговая - сегодня

Время (UTC), дата Ветер
(°,м/с) 
Видим.   Явления Облачность Т
(°С)
Тd
(°С)
f(%) Тe
(°С)
Pmin
(гПа)
dP
(гПа)
Po
(мм)
O2
(г/м3)
Тmin Tmax R s Состояние
почвы
09 22.10.21 110 (В) 20000 м    10/10 1000 м 
[Sc]
+4.7 -0.4 69 +6  1033.5  0.4  712  282           
12 22.10.21 тихо ()   20000 м  {дождь}  10/10 1000 м 
[Sc]
+4.3 -0.2 73 +4  1035.6  1.7  713  283           
15 22.10.21 тихо ()   10 км    5/0 верхняя 
[Ci fib]
+2.2 -0.3 84 +2  1036.8  0.6  714  285    +5.1       
18 22.10.21 тихо ()   10 км    ясно 
-1.2 -2.4 92 -1  1038.7  0.7  714  289    +5.1  0.0     
21 22.10.21 тихо ()   10 км    ясно 
-1.9 -4.2 84 -2  1038.4  -0.6  714  290           
00 23.10.21 тихо ()   10 км    ясно 
-2.2 -4.5 84 -2  1038.6  0.1  714  290           
03 23.10.21 тихо ()   20000 м    10/0 средняя 
[Ac trans]
+1.6 -3.9 67 +2  1037.2  -0.1  714  286           
06 23.10.21 070 (В) 20000 м    ясно 
+8.6 -0.2 54 +9  1034.2  -0.7  713  278  -2.7         
09 23.10.21 070 (В) 20000 м    ясно 
+10.8 +0 47 +11  1031.3  -2  712  276           
12 23.10.21 тихо ()   20000 м    ясно 
+8.7 +1.5 61 +9  1032.3  0.3  712  278           
15 23.10.21 тихо ()   10 км    ясно 
+4.5 +0.6 76 +5  1033.8  0.2  712  282    +11       
18 23.10.21 160 (Ю) 10 км    ясно 
+1.8 -1.3 80 +3  1033.2  -1.3  711  285    +11       
21 23.10.21 тихо ()   10 км    ясно 
-0.9 -3.4 83 -1  1033.2  -0.8  710  287           
00 24.10.21 тихо ()   10 км    ясно 
-1.3 -3.5 85 -1  1030.7  -2.4  709  287           
03 24.10.21 тихо ()   20000 м    ясно 
+3.3 -0.8 74 +3  1028.2  -0.9  708  282           
06 24.10.21 070 (В) 20000 м    ясно 
+12.2 -0.2 42 +12  1023.4  706  272  -1.4         
09 24.10.21 070 (В) 20000 м    ясно 
+14.8 -0.5 35 +15  1020.3  -2.1  705  269           
12 24.10.21 070 (В) 20000 м    ясно 
+13.1 +1.5 45 +14  1019.6  -1.1  704  270           
15 24.10.21 тихо ()   10 км    ясно 
+5.4 +1.4 75 +5  1020.7  -1.1  703  277    +15.4       
18 24.10.21 тихо ()   10 км    ясно 
+2.5 -0.5 81 +3  1019.9  -1.6  702  280    +15.4       
21 24.10.21 тихо ()   10 км    ясно 
-0.6 -3 84 -1  1019.6  -1.2  701  283           
00 25.10.21 тихо ()   10 км    ясно 
+1.8 -0.4 85 +2  1018.9  0.1  701  281           
03 25.10.21 тихо ()   20000 м    ясно 
+1.5 -2.3 76 +2  1019.4  0.4  701  281           
06 25.10.21 320 (СЗ) 20000 м    ясно 
+13.6 +1.5 44 +14  1015.7  701  269  -0.8         
09 25.10.21 тихо ()   20000 м    ясно 
+16.8 +2.1 37 +17  1014.1  -0.7  701  266           
Время (UTC), дата Ветер
(°,м/с) 
Видим.   Явления Облачность Т
(°С)
Тd
(°С)
f(%) Тe
(°С)
Pmin
(гПа)
dP
(гПа)
Po
(мм)
O2
(г/м3)
Тmin Tmax R s Состояние
почвы

Для получения пояснительной информации подведите курсор к названию столбца.

ПОГОДА Луговая - архив

Всё, что Вы хотите узнать о погоде Луговая - удобно и подробно!

Выберите нужную дату (начиная с 1 января 2019* года) и нажмите кнопку "Найти".
Будут отображены архивные сводки погоды по пункту Луговая, начиная с указанной даты.


Отображать данные в формате CSV (для использования в таблицах Excel)


Внимание! Наш архив погоды предназначен исключительно для личного некоммерческого использования в познавательных целях. Если Вам необходимы официальные справки о состоянии погоды (для производственных, юридических, коммерческих и т.п. целей), обращайтесь в органы Росгидромета.

*Примечание: данная дата относится к архиву по метеостанциям СССР (Россия, СНГ, Балтия).
Архив по метеостанциям Зарубежной Европы и Азии (кроме Китая) хранится 10 дней, по другим регионам земного шара (Китай, Африка, Америка, Австралия, Океания) - 1 день.

Луговая - район местоположения метеостанции


Название, широта, долгота, высота метеостанции:
Луговая 42.9°ш. 72.8°д. 683 м над ур. моря [Казахстан]

Дополнительная информация

В oтличие oт бoльшинства пoгoдных сайтoв мы публикуем пoдрoбную метеoинфoрмацию в детальнoм прoфессиoнальнoм фoрмате.

Характеристики температуры и влажнoсти вoздуха измеряются на высoте 2 м в тени вдали oт зданий и деревьев.
Скoрoсть ветра измеряется на высoте 10 м (на урoвне рoста челoвека скoрoсть ветра ниже в 1.5-2 раза). Если метеoстанция нахoдится в гoрoде или в лесу, тo скoрoсть ветра занижена на 2-4 м/с пo сравнению с oткрытым местoм. Скoрoсть ветра над акватoриями крупных рек и oзёр, а также на вершинах хoлмoв на 2-5 м/с выше, чем в oбычных услoвиях.
Атмoсфернoе давление в разных тoчках местнoсти мoжет значительнo oтличаться oт давления на метеoстанции, в зависимoсти oт услoвий рельефа (при пoдъёме на 10 м давление пoнижается примернo на 1 мм рт.ст.).